Regional Weather Roundup
Issued by NWS Sioux Falls, SD

Home | Current Version | Previous Version | Text Only | Print | Product List | Glossary Off
Versions: 1 2 3 4 5 6 7 8 9 10 11 12 13 14 15 16 17 18 19 20 21 22 23 24 25 26 27 28 29 30 31 32 33 34 35 36 37 38 39 40 41 42 43 44 45 46 47 48 49 50

000
ASUS43 KFSD 030502
RWRFSD

WEATHER ROUNDUP FOR SE SOUTH DAKOTA/SW MINNESOTA/NW IOWA
NATIONAL WEATHER SERVICE SIOUX FALLS SD
1200 AM CDT TUE MAY 03 2016

NOTE: "FAIR" INDICATES FEW OR NO CLOUDS BELOW 12,000 FEET WITH NO
SIGNIFICANT WEATHER AND OR OBSTRUCTIONS TO VISIBILITY.


SDZ038>040-050-052>070-030600-
SOUTHEAST SOUTH DAKOTA

CITY           SKY/WX    TMP DP  RH WIND       PRES   REMARKS
BROOKINGS      CLEAR     46  39  76 SW7       30.02F
CHAMBERLAIN    NOT AVBL
HURON          CLEAR     48  43  82 SE3       30.02S
MADISON        FAIR      46  45  93 SW3       30.03F
MITCHELL       PTCLDY    47  45  93 SE3       30.04R
SIOUX FALLS    CLEAR     44  38  79 CALM      30.04S
WINNER         FAIR      48  42  80 W5        30.05S
YANKTON        CLEAR     46  39  76 NE3       30.03S
$$

MNZ071-072-080-081-089-090-097-098-030600-
SOUTHWEST MINNESOTA

CITY           SKY/WX    TMP DP  RH WIND       PRES   REMARKS
FAIRMONT       CLEAR     48  27  43 CALM      30.02F
JACKSON        CLEAR     50  37  62 S6        30.04S
LUVERNE        CLEAR     45  41  87 CALM      30.04F
MARSHALL       CLEAR     52  37  56 SW13      30.00F
MONTEVIDEO     CLEAR     52  32  46 SW5       30.01S
PIPESTONE      CLEAR     46  39  76 CALM      30.03F
REDWOOD FALLS  CLEAR     50  37  61 SW8       30.00F
TRACY          CLEAR     50  41  70 SW8       30.01F
WINDOM         CLEAR     50  39  66 CALM      30.03S
$$

IAZ001>003-012>014-020>022-031-032-NEZ013-014-SDZ071-030600-
NORTHWEST IOWA

CITY           SKY/WX    TMP DP  RH WIND       PRES   REMARKS
CHEROKEE       CLEAR     41  41 100 CALM      30.05S
DENISON        CLEAR     45  41  87 E5        30.03S
ESTHERVILLE    CLEAR     48  40  73 SW5       30.03F
SIOUX CITY     MOCLDY    52  44  74 E3        30.04S
SPENCER        CLEAR     44  41  89 W5        30.04S
STORM LAKE     CLEAR     54  34  47 W5        30.05S
$$

ABBREVIATIONS USED IN REMARKS
   TC - TEMPERATURE IN CELSIUS
  WCI - WIND CHILL INDEX
   HX - HEAT INDEX
  VSB - VISIBILITY





USA.gov is the U.S. government's official web portal to all federal, state and local government web resources and services.